This is the latest recevied weather packets stored in our database for station/object KP4CRN. If no packets are shown the sender has not sent any weather packets the latest 10 day(s).
| Time | Temp. | Humidity | Pressure | Rain* | Wind** | Luminosity | Snow |
|---|---|---|---|---|---|---|---|
| 1777490355 | 28.33° C | 83% | 1013 hPa | 0 mm | - | 37 W/m² | - |
| 1777490053 | 28.33° C | 83% | 1013 hPa | 0 mm | - | 36 W/m² | - |
| 1777489750 | 28.33° C | 83% | 1012.9 hPa | 0 mm | - | 37 W/m² | - |
| 1777489447 | 28.33° C | 83% | 1013.3 hPa | 0 mm | - | 40 W/m² | - |
| 1777489144 | 28.33° C | 83% | 1012.9 hPa | 0 mm | - | 42 W/m² | - |
| 1777488841 | 28.33° C | 82% | 1013 hPa | 0 mm | - | 46 W/m² | - |
| 1777488538 | 28.33° C | 82% | 1012.9 hPa | 0 mm | - | 55 W/m² | - |
| 1777488236 | 28.33° C | 82% | 1012.9 hPa | 0 mm | - | 65 W/m² | - |
| 1777487934 | 28.89° C | 81% | 1012.8 hPa | 0 mm | - | 90 W/m² | - |
| 1777487631 | 28.89° C | 81% | 1012.9 hPa | 0 mm | - | 117 W/m² | - |
| 1777487328 | 28.89° C | 81% | 1012.9 hPa | 0 mm | - | 157 W/m² | - |
| 1777487026 | 29.44° C | 81% | 1013.1 hPa | 0 mm | - | 195 W/m² | - |
| 1777486721 | 29.44° C | 80% | 1013.3 hPa | 0 mm | - | 208 W/m² | - |
| 1777486420 | 29.44° C | 79% | 1013.2 hPa | 0 mm | - | 244 W/m² | - |
| 1777486117 | 29.44° C | 80% | 1013.3 hPa | 0 mm | - | 192 W/m² | - |
| 1777485813 | 29.44° C | 80% | 1013.6 hPa | 0 mm | - | 119 W/m² | - |
| 1777485509 | 30° C | 80% | 1013.6 hPa | 0 mm | - | 85 W/m² | - |
| 1777485206 | 30° C | 79% | 1013.9 hPa | 0 mm | - | 235 W/m² | - |
| 1777484902 | 30.56° C | 80% | 1013.9 hPa | 0 mm | - | 216 W/m² | - |
| 1777484599 | 30.56° C | 78% | 1013.7 hPa | 0 mm | - | 257 W/m² | - |
| 1777484295 | 31.11° C | 76% | 1013.6 hPa | 0 mm | - | 306 W/m² | - |
| 1777483991 | 31.11° C | 77% | 1013.7 hPa | 0 mm | - | 327 W/m² | - |
| 1777483688 | 31.11° C | 77% | 1013.9 hPa | 0 mm | - | 391 W/m² | - |
| 1777483384 | 30.56° C | 77% | 1014.2 hPa | 0 mm | - | 370 W/m² | - |
| 1777483079 | 30.56° C | 77% | 1014 hPa | 0 mm | - | 381 W/m² | - |
* Rain latest hour (hover to see other rain measurements)
** Current wind speed in m/s (hover to see current wind gust speed)